Weather in Chertovishchi

Russia / Ivanovo Oblast     57°17′52″N   41°52′34″E
temp.,
°C
wind,
m/s
gust,
m/s
humid.,
%
clouds,
%
prec.,
mm/h
press.,
hPa
HPBL,
m
3 march, wed
wed300:00−6nw5139022 0.0 1005520
03:00−7nw5129256 0.0 1008537
06:00−8nw51293100 0.1 1009483
09:00−7nw6992100 0.1 1010534
12:00−5wnw698999 0.1 1010707
15:00−3wnw699198 0.1 1009666
18:00−3wsw51196100 0.2 1006537
21:00−2w51394100 0.4 1004682
4 march, thu
thu400:00−2wsw51296100 0.3 1001679
03:00−2wsw61395100 1.1 998796
06:00−1wsw51097100 0.6 994542
09:000wnw8148599 1.6 9921327
12:00−3wnw8128686 0.1 9931081
15:00−2wnw8129093 0.4 9961122
18:00−4nw3791100 0.3 998208
21:00−8nw239498 0.3 100042
5 march, fri
fri500:00−11nnw239581 0.0 100121
03:00−13nnw229651 0.0 100220
06:00−15nw22970 0.0 100420
09:00−11wnw23951 0.0 1005106
12:00−7w249196 0.0 1005346
15:00−5w358796 0.0 1006571
18:00−8w129595 0.1 100721
21:00−8wnw239696 0.4 100983
6 march, sat
sat600:00−14nw339744 0.1 101052
03:00−15nw339861 0.1 101262
06:00−18nnw339575 0.0 101357
09:00−16nw359348 0.0 1014220
12:00−12wnw358855 0.0 1014533
15:00−11wnw468777 0.1 1014687
18:00−14w3494100 0.0 101371
21:00−17w339764 0.1 101339
7 march, sun
sun700:00−17sw339874 0.0 101142
03:00−15s489877 0.1 1008180
06:00−12s6149299 0.0 1003442
09:00−10ssw7149399 0.8 998812
12:00−6ssw81393100 0.8 9931049
15:00−4sw61195100 2.8 991832
18:00−8wnw41078100 1.0 991472
21:00−15w128067 1.0 99220